Location: Bucharest
(44.4268°N, 26.1025°E)
Time: 02:03:27
(UTC+03:00)

CUBESAT XI-V - Pass Details

Date: 01 July 2022
Orbit: 668 x 690 km, 98.1° (Epoch: 16 August)

Event Time Altitude Azimuth Distance (km) Brightness Sun altitude
Exits shadow 04:19:19 12° 246° (WSW) 1,949 ? -10.9°
Maximum altitude 04:21:00 15° 270° (W) 1,814 ? -10.7°
Drops below altitude 10° 04:23:33 10° 304° (NW) 2,109 ? -10.4°
Sets 04:26:47 0° 328° (NNW) 3,026 ? -10.0°
